| time (UTC) | temp C | wind direction | speed KPH | gust KPH | rain 1hr cm | rain 24hr cm | rain mn cm | humidity % | barometer mb |
| 20260510174219 | 14 | 307 | 1.6 | 11.3 | 0.00 | 0.30 | 0.00 | 31 | 1018.5 |
| 20260510173212 | 14 | 289 | 6.4 | 19.3 | 0.00 | 0.30 | 0.00 | 31 | 1018.5 |
| 20260510172210 | 13 | 259 | 3.2 | 12.9 | 0.00 | 0.30 | 0.00 | 35 | 1018.4 |
| 20260510171225 | 13 | 302 | 4.8 | 12.9 | 0.00 | 0.30 | 0.00 | 33 | 1018.6 |
| 20260510170211 | 13 | 322 | 1.6 | 11.3 | 0.00 | 0.30 | 0.00 | 33 | 1018.6 |
| 20260510165224 | 13 | 298 | 6.4 | 14.5 | 0.00 | 0.30 | 0.00 | 33 | 1018.6 |
| 20260510164222 | 13 | 269 | 3.2 | 12.9 | 0.00 | 0.30 | 0.00 | 35 | 1018.6 |
| 20260510163216 | 13 | 309 | 1.6 | 9.7 | 0.00 | 0.30 | 0.00 | 32 | 1018.5 |
| 20260510162228 | 13 | 94 | 1.6 | 11.3 | 0.00 | 0.30 | 0.00 | 30 | 1018.5 |
| 20260510161220 | 13 | 298 | 1.6 | 14.5 | 0.00 | 0.30 | 0.00 | 34 | 1018.5 |
| 20260510160211 | 13 | 293 | 4.8 | 12.9 | 0.00 | 0.30 | 0.00 | 33 | 1018.4 |
| 20260510155225 | 13 | 291 | 1.6 | 12.9 | 0.00 | 0.30 | 0.00 | 34 | 1018.4 |
| 20260510154218 | 13 | 295 | 3.2 | 11.3 | 0.00 | 0.30 | 0.00 | 35 | 1018.3 |
| 20260510153214 | 13 | 298 | 3.2 | 16.1 | 0.00 | 0.30 | 0.00 | 36 | 1018.2 |
| 20260510152248 | 13 | 343 | 4.8 | 12.9 | 0.00 | 0.30 | 0.00 | 34 | 1018.1 |
| 20260510151220 | 13 | 308 | 1.6 | 14.5 | 0.00 | 0.30 | 0.00 | 37 | 1017.9 |
| 20260510150247 | 13 | 319 | 1.6 | 11.3 | 0.00 | 0.30 | 0.00 | 38 | 1017.8 |
| 20260510145219 | 12 | 335 | 1.6 | 9.7 | 0.00 | 0.30 | 0.00 | 40 | 1017.7 |
| 20260510144237 | 12 | 319 | 3.2 | 11.3 | 0.00 | 0.30 | 0.00 | 41 | 1017.6 |
| 20260510143209 | 12 | 7 | 3.2 | 12.9 | 0.00 | 0.30 | 0.00 | 40 | 1017.6 |
| 20260510142243 | 12 | 277 | 1.6 | 4.8 | 0.00 | 0.30 | 0.00 | 42 | 1017.4 |
| 20260510141214 | 11 | 359 | 0.0 | 6.4 | 0.00 | 0.30 | 0.00 | 45 | 1017.4 |
| 20260510140224 | 11 | 349 | 3.2 | 8.0 | 0.00 | 0.30 | 0.00 | 45 | 1017.4 |
| 20260510135217 | 10 | 256 | 1.6 | 8.0 | 0.00 | 0.30 | 0.00 | 47 | 1017.4 |
| 20260510134210 | 10 | 300 | 3.2 | 9.7 | 0.00 | 0.30 | 0.00 | 46 | 1017.4 |
| 20260510133228 | 10 | 272 | 0.0 | 4.8 | 0.00 | 0.30 | 0.00 | 48 | 1017.4 |
| 20260510132221 | 10 | 303 | 1.6 | 9.7 | 0.00 | 0.30 | 0.00 | 50 | 1017.3 |
| 20260510131232 | 9 | 298 | 4.8 | 8.0 | 0.00 | 0.30 | 0.00 | 50 | 1017.2 |
| 20260510130219 | 9 | 18 | 1.6 | 6.4 | 0.00 | 0.30 | 0.00 | 53 | 1017.1 |
| 20260510124210 | 8 | 324 | 1.6 | 4.8 | 0.00 | 0.30 | 0.00 | 54 | 1016.9 |
| 20260510123223 | 8 | 340 | 0.0 | 6.4 | 0.00 | 0.30 | 0.00 | 56 | 1016.8 |
| 20260510122217 | 8 | 300 | 1.6 | 4.8 | 0.00 | 0.30 | 0.00 | 57 | 1016.7 |
| 20260510121234 | 7 | 264 | 1.6 | 4.8 | 0.00 | 0.30 | 0.00 | 58 | 1016.6 |
| 20260510120220 | 7 | 19 | 1.6 | 4.8 | 0.00 | 0.30 | 0.00 | 60 | 1016.5 |
| 20260510115214 | 7 | 298 | 0.0 | 3.2 | 0.00 | 0.30 | 0.00 | 61 | 1016.3 |
| 20260510114210 | 6 | 305 | 0.0 | 4.8 | 0.00 | 0.30 | 0.00 | 63 | 1016.2 |
| 20260510113243 | 5 | 333 | 0.0 | 1.6 | 0.00 | 0.30 | 0.00 | 68 | 1016.1 |
| 20260510112216 | -17 | 0.0 | 0.0 | 0.00 | 0.30 | 0.00 | 1016.0 | ||
| 20260510111210 | -17 | 0.0 | 0.0 | 0.00 | 0.30 | 0.00 | 1015.9 | ||
| 20260510110224 | -17 | 0.0 | 0.0 | 0.00 | 0.30 | 0.00 | 1015.7 | ||
| 20260510105243 | -17 | 0.0 | 0.0 | 0.00 | 0.30 | 0.00 | 1015.6 | ||
| 20260510104240 | -17 | 0.0 | 0.0 | 0.00 | 0.30 | 0.00 | 1015.5 | ||
| 20260510103257 | -17 | 0.0 | 0.0 | 0.00 | 0.30 | 0.00 | 1015.3 | ||
| 20260510102217 | -17 | 0.0 | 0.0 | 0.00 | 0.30 | 0.00 | 1015.3 | ||
| 20260510101309 | -17 | 0.0 | 0.0 | 0.00 | 0.30 | 0.00 | 1015.0 | ||
| 20260510100228 | -17 | 0.0 | 0.0 | 0.00 | 0.30 | 0.00 | 1015.0 | ||
| 20260510095241 | -17 | 0.0 | 0.0 | 0.00 | 0.30 | 0.00 | 1014.9 | ||
| 20260510094221 | 4 | 312 | 0.0 | 0.0 | 0.00 | 0.30 | 0.00 | 71 | 1014.8 |
| 20260510093221 | 5 | 312 | 0.0 | 0.0 | 0.00 | 0.30 | 0.00 | 70 | 1014.8 |
| 20260510092214 | 6 | 312 | 0.0 | 1.6 | 0.00 | 0.30 | 0.00 | 69 | 1014.6 |
| 20260510091247 | 6 | 313 | 0.0 | 1.6 | 0.00 | 0.30 | 0.00 | 67 | 1014.7 |
| 20260510090218 | 7 | 326 | 0.0 | 4.8 | 0.00 | 0.30 | 0.00 | 65 | 1014.5 |
| 20260510085209 | 7 | 337 | 1.6 | 9.7 | 0.00 | 0.30 | 0.00 | 65 | 1014.1 |
| 20260510084223 | 7 | 331 | 1.6 | 6.4 | 0.00 | 0.30 | 0.00 | 64 | 1013.9 |
| 20260510083217 | 7 | 267 | 1.6 | 4.8 | 0.00 | 0.30 | 0.00 | 63 | 1013.7 |
| 20260510082234 | 7 | 308 | 0.0 | 4.8 | 0.00 | 0.30 | 0.00 | 63 | 1013.5 |
| 20260510081226 | 7 | 312 | 0.0 | 4.8 | 0.00 | 0.30 | 0.00 | 62 | 1013.3 |
| 20260510080214 | 7 | 321 | 3.2 | 8.0 | 0.00 | 0.30 | 0.00 | 61 | 1013.0 |
| 20260510075248 | 7 | 357 | 1.6 | 6.4 | 0.00 | 0.30 | 0.00 | 62 | 1012.8 |
| 20260510074241 | 7 | 315 | 1.6 | 3.2 | 0.00 | 0.30 | 0.00 | 64 | 1012.5 |
| 20260510073217 | 8 | 324 | 0.0 | 3.2 | 0.00 | 0.30 | 0.00 | 64 | 1012.2 |
| 20260510072211 | 8 | 307 | 0.0 | 3.2 | 0.00 | 0.30 | 0.00 | 62 | 1012.0 |
| 20260510071223 | 8 | 260 | 0.0 | 8.0 | 0.00 | 0.30 | 0.00 | 62 | 1012.0 |
| 20260510070235 | 8 | 314 | 0.0 | 3.2 | 0.00 | 0.30 | 0.00 | 66 | 1011.8 |
| 20260510065225 | 8 | 330 | 0.0 | 3.2 | 0.00 | 0.30 | 0.00 | 67 | 1011.7 |
| 20260510064222 | 8 | 305 | 0.0 | 1.6 | 0.00 | 0.30 | 0.00 | 68 | 1011.7 |
| 20260510063215 | 7 | 255 | 0.0 | 0.0 | 0.00 | 0.30 | 0.00 | 71 | 1011.6 |
| 20260510062212 | 7 | 113 | 0.0 | 0.0 | 0.00 | 0.30 | 0.00 | 73 | 1011.6 |
| 20260510061225 | 7 | 113 | 0.0 | 0.0 | 0.00 | 0.30 | 0.00 | 73 | 1011.5 |
| 20260510060231 | 8 | 113 | 0.0 | 0.0 | 0.00 | 0.30 | 0.00 | 73 | 1011.4 |
| 20260510055244 | 8 | 113 | 0.0 | 0.0 | 0.00 | 0.30 | 0.00 | 72 | 1011.3 |
| 20260510054220 | 8 | 113 | 0.0 | 0.0 | 0.00 | 0.30 | 0.00 | 71 | 1011.1 |
| 20260510053213 | 8 | 113 | 0.0 | 1.6 | 0.00 | 0.30 | 0.00 | 70 | 1010.8 |
| 20260510052227 | 9 | 113 | 0.0 | 0.0 | 0.00 | 0.30 | 0.00 | 68 | 1010.7 |
| 20260510051221 | 10 | 113 | 0.0 | 0.0 | 0.00 | 0.30 | 0.00 | 65 | 1010.4 |
| 20260510050232 | 10 | 113 | 0.0 | 1.6 | 0.00 | 0.30 | 0.00 | 64 | 1010.2 |
| 20260510045224 | 11 | 319 | 0.0 | 6.4 | 0.00 | 0.30 | 0.00 | 63 | 1010.1 |
| 20260510044218 | 10 | 307 | 0.0 | 3.2 | 0.00 | 0.30 | 0.00 | 63 | 1009.8 |
| 20260510043215 | 11 | 312 | 0.0 | 0.0 | 0.00 | 0.30 | 0.00 | 62 | 1009.7 |
| 20260510042208 | 11 | 312 | 0.0 | 0.0 | 0.00 | 0.30 | 0.00 | 60 | 1009.5 |
| 20260510041222 | 12 | 312 | 0.0 | 3.2 | 0.00 | 0.30 | 0.00 | 57 | 1009.4 |
| 20260510040229 | 12 | 305 | 0.0 | 4.8 | 0.00 | 0.30 | 0.30 | 56 | 1009.4 |
| 20260510035246 | 13 | 300 | 1.6 | 6.4 | 0.00 | 0.30 | 0.30 | 55 | 1009.4 |
| 20260510034218 | 13 | 302 | 1.6 | 4.8 | 0.00 | 0.30 | 0.30 | 54 | 1009.2 |
| 20260510033212 | 13 | 288 | 1.6 | 6.4 | 0.00 | 0.30 | 0.30 | 52 | 1008.9 |
| 20260510032225 | 13 | 319 | 3.2 | 11.3 | 0.00 | 0.30 | 0.30 | 51 | 1008.9 |
| 20260510031224 | 14 | 302 | 1.6 | 11.3 | 0.00 | 0.30 | 0.30 | 51 | 1008.7 |
| 20260510030211 | 14 | 294 | 1.6 | 14.5 | 0.00 | 0.30 | 0.30 | 50 | 1008.6 |
| 20260510025224 | 15 | 359 | 1.6 | 14.5 | 0.00 | 0.30 | 0.30 | 48 | 1008.5 |
| 20260510024238 | 15 | 264 | 6.4 | 16.1 | 0.00 | 0.30 | 0.30 | 47 | 1008.2 |
| 20260510023234 | 15 | 323 | 6.4 | 14.5 | 0.00 | 0.30 | 0.30 | 46 | 1008.1 |
| 20260510022227 | 15 | 295 | 3.2 | 20.9 | 0.00 | 0.30 | 0.30 | 46 | 1007.9 |
| 20260510021239 | 16 | 343 | 4.8 | 11.3 | 0.00 | 0.30 | 0.30 | 46 | 1007.6 |
| 20260510020227 | 16 | 16 | 4.8 | 22.5 | 0.00 | 0.30 | 0.30 | 46 | 1007.1 |
| 20260510015244 | 16 | 289 | 4.8 | 9.7 | 0.00 | 0.30 | 0.30 | 51 | 1006.7 |
| 20260510014215 | 16 | 330 | 1.6 | 4.8 | 0.00 | 0.30 | 0.30 | 52 | 1006.4 |
| 20260510013249 | 16 | 271 | 1.6 | 3.2 | 0.00 | 0.30 | 0.30 | 52 | 1006.2 |
| 20260510012221 | 16 | 297 | 0.0 | 4.8 | 0.00 | 0.30 | 0.30 | 53 | 1005.8 |
| 20260510011218 | 16 | 278 | 0.0 | 1.6 | 0.00 | 0.30 | 0.30 | 52 | 1005.4 |
| 20260510010225 | 16 | 278 | 0.0 | 1.6 | 0.00 | 0.30 | 0.30 | 50 | 1005.3 |
| 20260510005219 | 17 | 278 | 0.0 | 0.0 | 0.00 | 0.30 | 0.30 | 49 | 1005.0 |
| 20260510004223 | 17 | 277 | 0.0 | 4.8 | 0.00 | 0.30 | 0.30 | 47 | 1004.9 |
| 20260510003217 | 18 | 298 | 1.6 | 9.7 | 0.00 | 0.30 | 0.30 | 45 | 1004.7 |
| 20260510002210 | 18 | 238 | 1.6 | 9.7 | 0.00 | 0.30 | 0.30 | 44 | 1004.6 |
| 20260510001224 | 18 | 305 | 4.8 | 16.1 | 0.00 | 0.30 | 0.30 | 42 | 1004.5 |
| 20260510000215 | 18 | 300 | 4.8 | 12.9 | 0.00 | 0.30 | 0.30 | 42 | 1004.2 |
| 20260509235228 | 19 | 292 | 4.8 | 16.1 | 0.00 | 0.30 | 0.30 | 41 | 1004.3 |
| 20260509234223 | 20 | 267 | 6.4 | 19.3 | 0.00 | 0.30 | 0.30 | 39 | 1004.1 |
| 20260509233219 | 20 | 263 | 6.4 | 16.1 | 0.00 | 0.30 | 0.30 | 39 | 1004.2 |
| 20260509232234 | 20 | 280 | 6.4 | 16.1 | 0.00 | 0.30 | 0.30 | 39 | 1004.0 |
| 20260509231225 | 20 | 328 | 3.2 | 22.5 | 0.00 | 0.30 | 0.30 | 40 | 1004.1 |
| 20260509230212 | 20 | 290 | 11.3 | 19.3 | 0.00 | 0.30 | 0.30 | 38 | 1004.1 |
| 20260509225230 | 20 | 301 | 9.7 | 25.7 | 0.00 | 0.30 | 0.30 | 37 | 1004.0 |
| 20260509224222 | 20 | 319 | 9.7 | 22.5 | 0.00 | 0.30 | 0.30 | 37 | 1003.8 |
| 20260509223216 | 20 | 297 | 11.3 | 25.7 | 0.00 | 0.30 | 0.30 | 37 | 1003.7 |
| 20260509222209 | 21 | 270 | 9.7 | 24.1 | 0.00 | 0.30 | 0.30 | 36 | 1003.5 |
| 20260509221222 | 21 | 295 | 11.3 | 30.6 | 0.00 | 0.30 | 0.30 | 36 | 1003.2 |
| 20260509220227 | 21 | 297 | 6.4 | 35.4 | 0.00 | 0.30 | 0.30 | 36 | 1003.1 |
| 20260509215219 | 21 | 253 | 9.7 | 17.7 | 0.00 | 0.30 | 0.30 | 35 | 1003.0 |
| 20260509214249 | 21 | 290 | 4.8 | 29.0 | 0.00 | 0.30 | 0.30 | 38 | 1002.8 |
| 20260509213223 | 21 | 276 | 9.7 | 22.5 | 0.00 | 0.30 | 0.30 | 38 | 1002.7 |
| 20260509212214 | 21 | 269 | 6.4 | 22.5 | 0.00 | 0.30 | 0.30 | 39 | 1002.7 |
| 20260509211223 | 20 | 262 | 4.8 | 14.5 | 0.00 | 0.30 | 0.30 | 43 | 1002.6 |
| 20260509210248 | 20 | 312 | 6.4 | 14.5 | 0.00 | 0.30 | 0.30 | 43 | 1002.7 |
| 20260509205224 | 20 | 312 | 4.8 | 17.7 | 0.00 | 0.30 | 0.30 | 46 | 1002.8 |
| 20260509204216 | 19 | 269 | 9.7 | 19.3 | 0.00 | 0.30 | 0.30 | 45 | 1003.0 |
| 20260509203228 | 19 | 274 | 6.4 | 17.7 | 0.00 | 0.30 | 0.30 | 49 | 1003.1 |
| 20260509202224 | 18 | 298 | 4.8 | 17.7 | 0.03 | 0.30 | 0.30 | 53 | 1003.3 |
| 20260509201235 | 18 | 276 | 6.4 | 20.9 | 0.03 | 0.30 | 0.30 | 58 | 1003.5 |
| 20260509200217 | 15 | 280 | 8.0 | 16.1 | 0.03 | 0.30 | 0.30 | 90 | 1003.4 |
| 20260509195228 | 15 | 271 | 8.0 | 17.7 | 0.18 | 0.30 | 0.30 | 91 | 1003.3 |
| 20260509194222 | 15 | 300 | 6.4 | 11.3 | 0.30 | 0.30 | 0.30 | 94 | 1003.3 |
| 20260509193214 | 15 | 298 | 3.2 | 9.7 | 0.30 | 0.30 | 0.30 | 94 | 1003.5 |
| 20260509192223 | 13 | 263 | 1.6 | 8.0 | 0.28 | 0.28 | 0.28 | 94 | 1003.6 |
| 20260509191215 | 12 | 269 | 1.6 | 4.8 | 0.28 | 0.28 | 0.28 | 93 | 1003.7 |
| 20260509190222 | 12 | 307 | 4.8 | 24.1 | 0.28 | 0.28 | 0.28 | 89 | 1003.7 |
| 20260509185213 | 18 | 305 | 14.5 | 29.0 | 0.10 | 0.10 | 0.10 | 61 | 1003.5 |
| 20260509184224 | 19 | 305 | 4.8 | 14.5 | 0.00 | 0.00 | 0.00 | 51 | 1002.6 |
| 20260509183216 | 19 | 246 | 4.8 | 14.5 | 0.00 | 0.00 | 0.00 | 52 | 1002.5 |
| 20260509182211 | 20 | 228 | 3.2 | 11.3 | 0.00 | 0.00 | 0.00 | 53 | 1002.4 |
| 20260509181221 | 20 | 256 | 1.6 | 16.1 | 0.00 | 0.00 | 0.00 | 54 | 1002.5 |
| 20260509180225 | 20 | 250 | 1.6 | 14.5 | 0.00 | 0.00 | 0.00 | 56 | 1002.6 |
| 20260509175221 | 20 | 279 | 3.2 | 17.7 | 0.00 | 0.00 | 0.00 | 54 | 1002.7 |